Location: Hains Lake
(37.8540°N, 99.8578°W)
Time: 19:12:14
(UTC+00:00)

Vanguard 3 - Pass Details

Date: 19 April 2021
Orbit: 508 x 3262 km, 33.4° (Epoch: 13 May)

Event Time Altitude Azimuth Distance (km) Brightness Sun altitude
Exits shadow 09:14:44 12° 105° (ESE) 1,566 8.9 -28.7°
Drops below altitude 10° 09:15:06 10° 103° (ESE) 1,712 9.2 -28.7°
Sets 09:17:20 0° 94° (E) 2,639 10.3 -28.4°
